Regional Weather Roundup
Issued by NWS

Home | Current Version | Previous Version | Text Only | Print | Product List | Glossary On
Versions: 1 2 3 4 5 6 7 8 9 10 11 12 13 14 15 16 17 18 19 20 21 22 23 24 25 26 27 28 29 30 31 32 33 34 35 36 37 38 39 40 41 42 43 44 45 46 47 48 49 50
000
ASUS44 KFWD 281210
RWRTX
NORTH TEXAS HOURLY WEATHER ROUNDUP
NATIONAL WEATHER SERVICE FORT WORTH TX
700 AM CDT SAT MAY 28 2016

NOTE: "FAIR" INDICATES FEW OR NO CLOUDS BELOW 12,000 FEET WITH NO
SIGNIFICANT WEATHER AND/OR OBSTRUCTIONS TO VISIBILITY.

TXZ118-119-281300-
DALLAS/FORT WORTH METROPLEX

CITY           SKY/WX    TMP DP  RH WIND       PRES   REMARKS
DFW AIRPORT    CLOUDY    67  64  90 S10       29.87R FOG
6HR MIN TEMP:  67; 6HR MAX TEMP:  68;

DALLAS LOVE    CLOUDY    67  66  97 S7        29.88R FOG
6HR MIN TEMP:  67; 6HR MAX TEMP:  69; 6HR PCP: TRACE;

FTW MEACHAM    CLOUDY    67  64  90 S10       29.87R
6HR MIN TEMP:  67; 6HR MAX TEMP:  68;

DAL-EXECUTIVE  CLOUDY    66  64  93 S8        29.88R FOG
6HR MIN TEMP:  65; 6HR MAX TEMP:  67; 6HR PCP: TRACE;

FTW-ALLIANCE   CLOUDY    66  64  93 S9        29.88R
6HR MIN TEMP:  66; 6HR MAX TEMP:  67;

FTW-NAS-JRB    CLOUDY    67  65  93 S8        29.88S
6HR MIN TEMP:  67; 6HR MAX TEMP:  67;

FTW-SPINKS     CLOUDY    66  64  94 S6        29.90R FOG
ARLINGTON      CLOUDY    68  65  90 S7        29.89R FOG
6HR MIN TEMP:  68; 6HR MAX TEMP:  70;

GRAND PRAIRIE  CLOUDY    66  66 100 S6        29.90R FOG
ADDISON        CLOUDY    66  66 100 S9        29.89R
MESQUITE       FOG       64  64 100 SE6       29.89R VSB 1
LANCASTER      CLOUDY    66  64  93 S6        29.89R FOG
6HR MIN TEMP:  65; 6HR MAX TEMP:  67;

$$

TXZ091>094-102>105-117-120-121-131>134-281300-
NORTH CENTRAL TEXAS

CITY           SKY/WX    TMP DP  RH WIND       PRES   REMARKS
SHRMAN/DENISON CLOUDY    63  60  90 W3        29.92R FOG
6HR MIN TEMP:  63; 6HR MAX TEMP:  64;

GAINESVILLE    CLOUDY    66  62  88 S6        29.92R
6HR MIN TEMP:  64; 6HR MAX TEMP:  66;

BOWIE          MOCLDY    65  63  93 SE3       29.90R
6HR MIN TEMP:  63; 6HR MAX TEMP:  65;

BRIDGEPORT     CLOUDY    66  66 100 SE5       29.93R
6HR MIN TEMP:  62; 6HR MAX TEMP:  66;

DECATUR        MOCLDY    65  64  98 CALM      29.91R
6HR MIN TEMP:  64; 6HR MAX TEMP:  65; 6HR PCP:  0.01;

DENTON         CLOUDY    66  63  90 CALM      29.89R
6HR MIN TEMP:  66; 6HR MAX TEMP:  68;

MCKINNEY       CLOUDY    66  66 100 S9        29.88R FOG
6HR MIN TEMP:  66; 6HR MAX TEMP:  68;

GREENVILLE     CLOUDY    66  63  88 S5        29.90R
ROCKWALL       CLOUDY    65  65 100 S7        29.88R FOG
6HR MIN TEMP:  65; 6HR MAX TEMP:  67;

TERRELL        CLOUDY    65  64  97 S10       29.89S FOG
6HR MIN TEMP:  65; 6HR MAX TEMP:  68;

WAXAHACHIE     CLOUDY    65  65 100 S7        29.90R FOG
6HR MIN TEMP:  65; 6HR MAX TEMP:  66;

CLEBURNE       CLOUDY    66  66 100 S7        29.90R FOG
GRANBURY       CLOUDY    67  65  94 S8        29.89R FOG
6HR MIN TEMP:  65; 6HR MAX TEMP:  67;

$$

TXZ083>090-098>101-113>116-127>130-139>142-154-155-281300-
WESTERN NORTH TEXAS

CITY           SKY/WX    TMP DP  RH WIND       PRES   REMARKS
WICHITA FALLS  FOG       63  63 100 S8        29.87R VSB<1/4
6HR MIN TEMP:  60; 6HR MAX TEMP:  64;

WF-KICKAPOO    FOG       65  63  93 SE5       29.90R VSB<1/4
6HR MIN TEMP:  63; 6HR MAX TEMP:  68;

VERNON         MOCLDY    66  62  87 N3        29.90R
6HR MIN TEMP:  66; 6HR MAX TEMP:  91;

ABILENE        CLEAR     64  62  93 N10       29.91R
6HR MIN TEMP:  64; 6HR MAX TEMP:  67;

BRECKENRIDGE   CLEAR     67  64  89 CALM      29.89R
6HR MIN TEMP:  66; 6HR MAX TEMP:  69;

GRAHAM         CLOUDY    64  64 100 NE3       29.89R FOG
6HR MIN TEMP:  63; 6HR MAX TEMP:  67;

MINERAL WELLS  FOG       65  65 100 CALM      29.89R VSB 1
6HR MIN TEMP:  63; 6HR MAX TEMP:  65;

STEPHENVILLE   CLOUDY    65  63  94 S7        29.91R
6HR MIN TEMP:  63; 6HR MAX TEMP:  65;

COMANCHE       CLEAR     62  62 100 SE3       29.89R FOG
6HR MIN TEMP:  61; 6HR MAX TEMP:  66; 6HR PCP:  0.02;

BROWNWOOD      FOG       64  64 100 CALM      29.90R VSB<1/4
COLEMAN        FOG       62  62  99 CALM      29.91R VSB<1/4
6HR MIN TEMP:  62; 6HR MAX TEMP:  66;

$$

TXZ143>147-156>162-174-175-281300-
CENTRAL TEXAS

CITY           SKY/WX    TMP DP  RH WIND       PRES   REMARKS
WACO           CLOUDY    66  64  93 S7        29.89R
6HR MIN TEMP:  65; 6HR MAX TEMP:  67;

WACO-MCGREGOR  CLOUDY   N/A N/A N/A S7          N/A  HAZE
                                      6HR PCP:  0.01;

HILLSBORO      CLOUDY    64  64  99 S7        29.89S FOG
6HR MIN TEMP:  64; 6HR MAX TEMP:  65;

CORSICANA      CLOUDY    67  64  90 S7        29.90R FOG
6HR MIN TEMP:  66; 6HR MAX TEMP:  68;

MEXIA          CLOUDY    65  64  98 S12       29.88R FOG
6HR MIN TEMP:  64; 6HR MAX TEMP:  66;

HEARNE         CLOUDY    65  65  98 CALM      29.91R
6HR MIN TEMP:  65; 6HR MAX TEMP:  66;

CAMERON        CLOUDY    65  65  98 S5        29.90R FOG
6HR MIN TEMP:  65; 6HR MAX TEMP:  66;

TEMPLE         CLOUDY    65  65 100 S5        29.90R FOG
6HR MIN TEMP:  65; 6HR MAX TEMP:  66;

KILLEEN        CLOUDY    64  64 100 SE6       29.89R FOG
6HR MIN TEMP:  62; 6HR MAX TEMP:  64; 6HR PCP:  0.01;

KILLEEN-SKYLRK LGT RAIN  65  65 100 S3        29.90R FOG
6HR MIN TEMP:  65; 6HR MAX TEMP:  66; 6HR PCP: TRACE;

FORT HOOD      CLOUDY    63  63 100 S3        29.88R FOG
6HR MIN TEMP:  63; 6HR MAX TEMP:  64; 6HR PCP:  0.01;

GATESVILLE     FOG       64  64 100 S5        29.92R VSB 1
HAMILTON       LGT RAIN  64  64 100 S7        29.90R VSB<1/4
6HR MIN TEMP:  62; 6HR MAX TEMP:  64;

LAMPASAS       FOG       64  64  97 CALM      29.90R VSB 1/4
6HR MIN TEMP:  60; 6HR MAX TEMP:  64;

$$

TXZ095>097-106>112-122>126-135>138-148>153-164>167-281300-
EAST TEXAS

CITY           SKY/WX    TMP DP  RH WIND       PRES   REMARKS
PARIS          CLOUDY    66  57  72 S8        29.89S
6HR MIN TEMP:  66; 6HR MAX TEMP:  66;

SULPHUR SPRNGS CLOUDY    67  64  89 SW10      29.91R
6HR MIN TEMP:  67; 6HR MAX TEMP:  69;

MOUNT PLEASANT CLOUDY    66  66 100 CALM      29.91R
6HR MIN TEMP:  64; 6HR MAX TEMP:  67;

GILMER         CLOUDY    65  64  95 S6        29.90R
6HR MIN TEMP:  64; 6HR MAX TEMP:  65;

MINEOLA        CLOUDY    66  63  88 S7        29.90S
TYLER          CLOUDY    66  62  87 S10       29.89R
6HR MIN TEMP:  64; 6HR MAX TEMP:  67;

LONGVIEW       CLOUDY    65  64  97 S10       29.89R
6HR MIN TEMP:  65; 6HR MAX TEMP:  67;

MARSHALL       CLOUDY    60  58  94 CALM      29.92R VSB<1/4
6HR MIN TEMP:  60; 6HR MAX TEMP:  65;

ATHENS         CLOUDY    63  63 100 S7        29.89R
PALESTINE      CLEAR     63  63 100 S3        29.91R
JACKSONVILLE   MOCLDY    64  64  99 SW6       29.91S FOG
HENDERSON      CLOUDY    65  64  98 SW3       29.91S
6HR MIN TEMP:  63; 6HR MAX TEMP:  66;

CENTER         PTSUNNY   64  63  96 E6        29.89R FOG
6HR MIN TEMP:  63; 6HR MAX TEMP:  68;

NACOGDOCHES    CLOUDY    61  59  94 CALM      29.89R VSB<1/4
6HR MIN TEMP:  61; 6HR MAX TEMP:  66;

LUFKIN         PTCLDY    61  60  97 CALM      29.89R FOG
6HR MIN TEMP:  60; 6HR MAX TEMP:  65;

$$

SUPPLEMENTAL OBSERVATIONS (CENTRAL)

CITY           SKY/WX    TMP DP  RH WIND       PRES   REMARKS
PAT MAYSE LAKE   N/A     66  64  94 SE10        N/A
GREENVILLE       N/A     66  61  82 S7          N/A
TEMPLE           N/A     64  63  94 S2G13       N/A
$$

SUPPLEMENTAL OBSERVATIONS (WEST)

CITY           SKY/WX    TMP DP  RH WIND       PRES   REMARKS
MILLERS CREEK    N/A     70  63  78 S7          N/A
POSSUM KINGDOM   N/A     64  61  88 N1G13       N/A
GRANBURY         N/A     66  64  94 S9G17       N/A
HAMBY            N/A     64  61  88 W2          N/A
$$

SUPPLEMENTAL OBSERVATIONS (EAST)

CC1F1C2F2C3F3C4F4C5F5C6F6C7F7C8F8C9!



USA.gov is the U.S. government's official web portal to all federal, state and local government web resources and services.